Home   Weather   Ajaccio   Past weeks

Flag for France Past Weather in Ajaccio, Corsica, France — Yesterday and Last 2 Weeks

Now
77 °F

Sunny.


Feels Like: 79 °F
Forecast: 61 / 76 °F
Wind: 8 mph from Southwest

Location: Ajaccio Airport

Current Time: Sep 30, 2016 at 3:29:33 PM

Latest Report: Sep 30, 2016 at 3:00 PM


Visibility: 10 mi

Pressure: 30.15 "Hg

Humidity: 47%

Dew Point: 55 °F

Location of AjaccioLocation

Past Weather in Ajaccio — Graph

°F

Ajaccio Temperature Yesterday

Maximum temperature yesterday: 77 °F (at 1:00 PM)
Minimum temperature yesterday: 57 °F (at 5:30 AM)
Average temperature yesterday: 67 °F

High & Low Weather Summary for the Past Weeks

 TemperatureHumidityPressure
High82 °F (Sep 15, 2:00 PM)94% (Sep 16, 8:00 AM)30.39 "Hg (Sep 16, 8:00 AM)
Low54 °F (Sep 30, 5:30 AM)41% (Sep 30, 11:00 AM)29.83 "Hg (Sep 18, 2:00 PM)
Average67 °F74%30.07 "Hg
* Reported Sep 15 2:00 PM — Sep 30 2:00 PM, Ajaccio, Weather by CustomWeather, © 2016

Note: Actual official high and low records may vary slightly from our data, if they occured in-between our weather recording intervals... More about our weather records

Advertising

Ajaccio Weather History for the Previous 24 Hours

Scroll right to see more
 ConditionsComfort  
Time TempWeatherWind HumidityBarometerVisibility
2:00 PM
Fri, Sep 30
77 °FSunny.9 mph47%30.15 "Hg10 mi
1:30 PM77 °FSunny.9 mph44%30.18 "Hg10 mi
1:00 PM77 °FSunny.8 mph44%30.18 "Hg10 mi
12:30 PM75 °FSunny.6 mph44%30.18 "Hg10 mi
12:00 PM75 °FSunny.5 mph44%30.18 "Hg10 mi
11:30 AM75 °FPassing clouds.3 mph41%30.18 "HgN/A
11:00 AM75 °FSunny.2 mph41%30.18 "Hg10 mi
10:30 AM72 °FSunny.3 mph50%30.18 "Hg10 mi
10:00 AM68 °FSunny.6 mph56%30.18 "Hg10 mi
9:30 AM64 °FSunny.6 mph60%30.18 "Hg10 mi
9:00 AM59 °FPassing clouds.7 mph72%30.18 "HgN/A
8:30 AM57 °FSunny.7 mph77%30.18 "Hg10 mi
8:00 AM55 °FSunny.8 mph77%30.18 "Hg10 mi
7:30 AM54 °FPassing clouds.6 mph82%30.18 "HgN/A
7:00 AM54 °FPassing clouds.7 mph88%30.18 "HgN/A
6:30 AM55 °FClear.5 mph82%30.18 "Hg10 mi
6:00 AM55 °FClear.7 mph82%30.18 "Hg10 mi
5:30 AM54 °FClear.8 mph88%30.18 "Hg10 mi
5:00 AM55 °FClear.8 mph82%30.18 "Hg10 mi
4:30 AM55 °FClear.7 mph88%30.18 "Hg10 mi
4:00 AM57 °FClear.7 mph77%30.18 "Hg10 mi
3:30 AM59 °FClear.7 mph77%30.21 "Hg10 mi
3:00 AM57 °FClear.8 mph82%30.21 "Hg10 mi
2:30 AM55 °FClear.9 mph88%30.21 "Hg10 mi
2:00 AM57 °FClear.8 mph82%30.24 "Hg10 mi
1:30 AM57 °FPassing clouds.6 mph82%30.24 "HgN/A
1:00 AM57 °FPassing clouds.5 mph82%30.24 "HgN/A
12:30 AM59 °FClear.5 mph82%30.24 "Hg10 mi
12:00 AM59 °FPassing clouds.5 mph82%30.24 "HgN/A
11:30 PM
Thu, Sep 29
61 °FPassing clouds.5 mph77%30.24 "HgN/A
11:00 PM61 °FClear.6 mph77%30.24 "Hg10 mi
10:30 PM63 °FClear.6 mph73%30.24 "Hg10 mi
10:00 PM63 °FClear.6 mph73%30.24 "Hg10 mi
9:30 PM64 °FClear.6 mph73%30.24 "Hg10 mi
9:00 PM66 °FClear.5 mph68%30.24 "Hg10 mi
8:30 PM66 °FClear.5 mph73%30.24 "Hg10 mi
8:00 PM68 °FClear.3 mph69%30.24 "Hg10 mi
7:30 PM70 °FPassing clouds.3 mph64%30.24 "HgN/A
7:00 PM72 °FPassing clouds.5 mph57%30.24 "HgN/A
6:30 PM73 °FSunny.5 mph57%30.24 "Hg10 mi
6:00 PM75 °FPassing clouds.7 mph57%30.24 "HgN/A
5:30 PM75 °FPassing clouds.7 mph54%30.27 "HgN/A
5:00 PM77 °FPassing clouds.8 mph54%30.27 "HgN/A
4:30 PM75 °FPassing clouds.8 mph57%30.27 "HgN/A
4:00 PM77 °FPassing clouds.9 mph54%30.27 "HgN/A
3:30 PM77 °FPassing clouds.10 mph57%30.27 "HgN/A
3:00 PM77 °FPassing clouds.12 mph57%30.30 "HgN/A
Weather by CustomWeather, © 2016

See weather overviewHow to use our weather pages